Terminal Aerodrome Forecast
Issued by NWS

Home | Current Version | Previous Version | Text Only | Print | Product List | Glossary Off
Versions: 1 2 3 4 5 6 7 8 9 10 11 12 13 14 15 16 17 18 19 20 21 22 23 24 25 26 27 28 29 30 31 32 33 34 35 36

000
FTUS43 KLOT 271352 AAA
TAFMDW
TAF AMD
KMDW 271352Z 2714/2812 08008KT P6SM FEW120 BKN250
     FM271600 09010KT P6SM FEW050 SCT250
     FM280200 09005KT P6SM FEW250=

USA.gov is the U.S. government's official web portal to all federal, state and local government web resources and services.